{"data":{"norad_id":28474,"epoch":"2026-09-19T12:13:04.923264Z","epoch_age_seconds":103728,"freshness":"FRESH","line1":"1 28474U 04045A   26262.50908476 -.00000071  00000+0  00000+0 0  9992","line2":"2 28474  55.0745 321.0917 0172338 318.7395  22.2982  2.00560146160316","mean_motion":2.00560146,"eccentricity":0.0172338,"inclination_deg":55.0745,"raan_deg":321.0917,"arg_perigee_deg":318.7395,"mean_anomaly_deg":22.2982,"bstar":0,"rev_number":16031,"period_min":717.98910637012,"perigee_km":19724.775130256,"apogee_km":20640.257097525,"semimajor_km":26560.65311389,"source":"CELESTRAK","updated_at":"2026-09-20T09:00:46.084925Z"}}